Regional Weather Roundup
Issued by NWS Northern Indiana

Home | Current Version | Previous Version | Text Only | Print | Product List | Glossary On
Versions: 1 2 3 4 5 6 7 8 9 10 11 12 13 14 15 16 17 18 19 20 21 22 23 24 25 26 27 28 29 30 31 32 33 34 35 36 37 38 39 40 41 42 43 44 45 46 47 48 49 50
000
ASUS43 KIWX 300310
RWRIWX

KIWX WEATHER ROUNDUP
NATIONAL WEATHER SERVICE NORTHERN INDIANA
1100 PM EDT FRI AUG 29 2014

NOTE: "FAIR" INDICATES FEW OR NO CLOUDS BELOW 12,000 FEET WITH NO
SIGNIFICANT WEATHER AND/OR OBSTRUCTIONS TO VISIBILITY.

* THESE STATIONS ARE NOT UNDER NWS QUALITY CONTROL. THEY ALSO MAY NOT
  REPORT WEATHER SUCH AS PRECIPITATION OR FOG.

INZ001>027-300400-
NORTHERN INDIANA

CITY           SKY/WX    TMP DP  RH WIND       PRES   REMARKS
GARY*          CLOUDY    74  69  82 SE8       29.92S
VALPARAISO     CLOUDY    71  68  90 SE7       29.95S
MICHIGAN CITY* MOCLDY    72  68  88 S3        29.95S
LAPORTE*       LGT RAIN  69  68  96 SE5       29.96F
KNOX*          CLOUDY    70  66  88 SE7       29.95S
SOUTH BEND     TSTM      73  67  81 S14G23    29.99R
GOSHEN         CLOUDY    76  68  76 SE9       29.98S
MONTICELLO*    MOCLDY    70  69  97 CALM      29.95S
LOGANSPORT*    CLOUDY    72  68  88 E5        29.98S
ROCHESTER*     CLOUDY    72  70  94 NE3       29.98F
WARSAW*        CLOUDY    73  68  83 SE3       29.99R
ANGOLA*        CLEAR     73  64  73 SE6       30.01S
FORT WAYNE     MOCLDY    73  67  81 SE8       30.01R
HUNTINGTON*    MOCLDY    74  67  78 SE7       30.00R
PERU/GRISSOM   MOCLDY    75  74  98 SE3       29.97S
MARION*        PTCLDY    74  67  76 SE6       30.00S

$$
INZ028>050-300400-
CENTRAL INDIANA

CITY           SKY/WX    TMP DP  RH WIND       PRES   REMARKS
LAFAYETTE      PTCLDY    71  69  93 CALM      29.95R
KOKOMO*        MOCLDY    73  70  88 SE6       29.98S
MUNCIE*        CLEAR     76  66  71 SE6       30.01R
INDIANAPOLIS   PTCLDY    78  67  68 S12       29.97

$$
MIZ043>046-050>051-056>058-064>065-071>073-077>080-300400-
SOUTHWEST LOWER MICHIGAN

CITY           SKY/WX    TMP DP  RH WIND       PRES   REMARKS
BATTLE CREEK   MOCLDY    74  66  76 S9        30.00R
BENTON HARBOR  MOCLDY    75  70  84 SE9       29.94R
COLDWATER*     PTCLDY    75  66  75 SE5       30.00S
HILLSDALE*     PTCLDY    72  67  83 SE7       30.03S
HOLLAND        MOCLDY    76  70  82 SE12      29.95R
GRAND RAPIDS   CLOUDY    74  72  93 S12       29.96S
KALAMAZOO      MOCLDY    74  67  78 VRB6      29.99R
STURGIS*       MOCLDY    73  68  83 SE8       29.99S
THREE RIVERS*  FAIR      74  67  78 S6        29.99S

$$
OHZ001>008-015>018-024>025-300400-
NORTHWEST OHIO

CITY           SKY/WX    TMP DP  RH WIND       PRES   REMARKS
WAUSEON*       FAIR      70  64  83 S6        30.03R
DEFIANCE       PTCLDY    76  64  66 SE5       30.02R
FINDLAY        CLEAR     73  62  68 SE9       30.03S
TOLEDO EXPRESS CLEAR     69  63  81 SE3       30.02S
TOLEDO METCALF CLEAR     69  63  81 SE6       30.03S
LIMA           CLEAR     73  64  73 SE8       30.04R

$$
&&


USA.gov is the U.S. government's official web portal to all federal, state and local government web resources and services.